sat.trackr.live / text

‹ back to catalog

STARLINK-36936

NORAD 68012 · 2026-039AC

PAYLOAD ACTIVE UNKNOWN

§ Identity

Operator
Country
US
Launch date
2026-02-27
Launch site
AFETR
Launch vehicle
Mass (kg)
RCS (m²)

Purposes: comms

External: N2YO · Heavens-Above · Gunter

§ Orbital elements

Epoch: 2026-09-19T19:09:59.702688Z

Period
94.27 min
Inclination
43.0032°
Eccentricity
0.0001566
Mean motion
15.27590386 rev/d
Perigee alt
481.9 km
Apogee alt
484.1 km
Semi-major
6,861.2 km
B*
5.8407e-4
RAAN
32.3715°
Arg perigee
271.5416°
Mean anomaly
88.5256°
Rev number
3,139

§ Raw data

STARLINK-369361 68012U 26039AC  26262.79860767  .00015850  00000+0  58407-3 0  99902 68012  43.0032  32.3715 0001566 271.5416  88.5256 15.27590386 31392

JSON: /api/v1/satellites/68012 · /tle

For live sub-satellite position, see the globe view (requires WebGL).

§ Visibility from observer

Set your observer location to see the next 7 days of passes ≥ 10°. The values pass through the URL so the page stays shareable.

No JS? Fill the form by hand. The geolocation button needs JavaScript.